Location: Alpine Heights
(32.8181°N, 116.7809°W)
Time: 23:59:27
(UTC+00:00)

Cosmos 1378 Rocket - Pass Details

Date: 14 April 2021
Orbit: 600 x 628 km, 82.5° (Epoch: 14 May)

Event Time Altitude Azimuth Distance (km) Brightness Sun altitude
Rises 12:06:44 0° 182° (S) 2,899 6.8 -15.2°
Reaches altitude 10° 12:08:58 10° 180° (S) 1,995 5.9 -14.8°
Maximum altitude 12:13:23 77° 96° (E) 646 3.7 -13.9°
Drops below altitude 10° 12:17:49 10° 10° (N) 2,000 6.6 -13.0°
Sets 12:20:03 0° 9° (N) 2,906 7.4 -12.6°
